This demonstration page uses our WeatherBlox Daily Observations layout. Learn more.

Left ArrowRight Arrow

39.92423, -83.80882

Hourly Observations for January 2, 2020

Temp ( °F °C ) Dew Point ( °F °C ) Humidity (%) Winds ( mph kmh ) Pressure ( in mb ) Visibility ( mi km ) Precip ( " mm )
12:56 am 00:56 Clear 37 2.8 25 -3.9 62 62 SSW 9 15 29.83 1010 10 16.0934 0 0
1:56 am 01:56 Clear 37 2.8 24 -4.4 59 59 SSW 9 15 29.82 1010 10 16.0934 0 0
2:56 am 02:56 Clear 38 3.3 24 -4.4 57 57 SSW 9 15 29.83 1010 10 16.0934 0 0
3:56 am 03:56 Clear 38 3.3 25 -3.9 60 60 SSW 10 17 29.82 1010 10 16.0934 0 0
4:56 am 04:56 Clear 38 3.3 26 -3.3 62 62 SSW 9 15 29.81 1010 10 16.0934 0 0
5:56 am 05:56 Clear 39 3.9 25 -3.9 57 57 SSW 12 19 29.79 1009 10 16.0934 0 0
6:56 am 06:56 Mostly Cloudy 38 3.3 26 -3.3 62 62 S 6 9 29.79 1009 10 16.0934 0 0
7:56 am 07:56 Cloudy 39 3.9 27 -2.8 62 62 S 8 13 29.79 1009 10 16.0934 0 0
8:56 am 08:56 Cloudy 41 5 27 -2.8 57 57 SSW 14 22 29.79 1009 10 16.0934 0 0
9:15 am 09:15 Cloudy 43 6 28 -2 57 57 SSW 14 22 29.8 1009 10 16.0934 0 0
9:56 am 09:56 Cloudy 42 5.6 29 -1.7 60 60 SSW 15 24 29.81 1010 10 16.0934 0 0
10:56 am 10:56 Cloudy 45 7.2 32 0 61 61 SW 13 20 29.82 1010 10 16.0934 0 0
11:24 am 11:24 Cloudy 46 8 34 1 62 62 SW 13 20 29.8 1009 10 16.0934 0 0
11:56 am 11:56 Cloudy 46 7.8 33 0.6 61 61 SW 15 24 29.78 1009 10 16.0934 0 0
12:31 pm 12:31 Cloudy 46 8 34 1 62 62 SW 17 28 29.78 1008 10 16.0934 0 0
12:56 pm 12:56 Cloudy 47 8.3 34 1.1 61 61 SSW 14 22 29.76 1008 10 16.0934 0 0
1:22 pm 13:22 Cloudy 48 9 36 2 62 62 SSW 16 26 29.76 1008 10 16.0934 0 0
1:53 pm 13:53 Cloudy 48 9 36 2 62 62 SSW 16 26 29.76 1008 10 16.0934 0 0
1:56 pm 13:56 Cloudy 48 8.9 35 1.7 61 61 SW 17 28 29.76 1008 10 16.0934 0 0
2:56 pm 14:56 Cloudy 48 8.9 36 2.2 63 63 SSW 17 28 29.73 1007 10 16.0934 0 0
3:56 pm 15:56 Cloudy 47 8.3 40 4.4 77 77 SSW 14 22 29.75 1008 10 16.0934 0 0
4:56 pm 16:56 Cloudy 47 8.3 41 5 80 80 SSW 13 20 29.75 1007 10 16.0934 0 0
5:43 pm 17:43 Cloudy 46 8 45 7 93 93 SSW 13 20 29.76 1008 10 16.0934 0 0
5:56 pm 17:56 Cloudy 47 8.3 44 6.7 90 90 SSW 12 19 29.76 1008 10 16.0934 0 0
6:48 pm 18:48 Cloudy 46 8 45 7 93 93 SSW 8 13 29.76 1008 10 16.0934 0 0
6:56 pm 18:56 Cloudy 46 7.8 45 7.2 96 96 S 9 15 29.76 1008 10 16.0934 0 0
7:56 pm 19:56 Cloudy 46 7.8 46 7.8 100 100 SSW 7 11 29.75 1008 10 16.0934 0 0
8:56 pm 20:56 Cloudy 47 8.3 47 8.3 100 100 SSW 8 13 29.75 1008 10 16.0934 0 0
9:23 pm 21:23 Cloudy with Light Rain 46 8 46 8 100 100 SSW 7 11 29.75 1007 10 16.0934 0.001 0.001
9:56 pm 21:56 Cloudy with Light Rain 47 8.3 47 8.3 100 100 SSW 6 9 29.74 1007 10 16.0934 0.001 0.001
10:56 pm 22:56 Cloudy with Light Rain 49 9.4 49 9.4 100 100 SSW 10 17 29.73 1007 10 16.0934 0.03 0.762
11:56 pm 23:56 Cloudy with Rain 49 9.4 49 9.4 100 100 SSW 7 11 29.73 1007 10 16.0934 0.04 1.016

Powered by AerisWeather